Regional Weather Roundup
Issued by NWS

Home | Current Version | Previous Version | Text Only | Print | Product List | Glossary Off
Versions: 1 2 3 4 5 6 7 8 9 10 11 12 13 14 15 16 17 18 19 20 21 22 23 24 25 26 27 28 29 30 31 32 33 34 35 36 37 38 39 40 41 42 43 44 45 46 47 48 49 50

000
ASUS43 KMKX 240220
RWRWI

WISCONSIN REGIONAL WEATHER ROUNDUP
NATIONAL WEATHER SERVICE MILWAUKEE/SULLIVAN WI
900 PM CDT WED JUL 23 2014

NOTE: "FAIR" INDICATES FEW OR NO CLOUDS BELOW 12,000 FEET WITH NO
SIGNIFICANT WEATHER AND/OR OBSTRUCTIONS TO VISIBILITY.

WIZ001-002-006>008-014>016-023>028-240300-
NORTHWEST WISCONSIN

CITY           SKY/WX    TMP DP  RH WIND       PRES   REMARKS
SUPERIOR ARPT  CLEAR     59  54  82 NE3       30.18S
ASHLAND        CLEAR     58  55  90 CALM      30.19F
HAYWARD        CLEAR     66  58  75 CALM      30.19S
SIREN          CLEAR     66  57  73 CALM      30.18S
RICE LAKE      CLEAR     66  55  66 CALM      30.19S
LADYSMITH      CLEAR     65  56  73 CALM      30.20S
EAU CLAIRE     CLEAR     68  57  68 N5        30.16S
MENOMONIE      CLEAR     69  57  65 CALM      30.17S
NEW RICHMOND   CLEAR     67  59  75 CALM      30.17S
OSCEOLA        CLEAR     71  56  58 N3        30.19S
$$

WIZ003>005-009-010-017-018-240300-
NORTH CENTRAL WISCONSIN

CITY           SKY/WX    TMP DP  RH WIND       PRES   REMARKS
WOODRUFF       CLEAR     62  50  64 CALM      30.20S
RHINELANDER    CLEAR     61  53  75 CALM      30.20R
EAGLE RIVER    CLEAR     60  49  66 N3        30.20S
LAND O LAKES   CLEAR     60  50  70 N3        30.21S
PHILLIPS       CLEAR     57  52  81 CALM      30.20R
TOMAHAWK       CLEAR     58  54  84 CALM      30.19S
MEDFORD        CLEAR     62  56  81 CALM      30.19R
MERRILL        CLEAR     63  55  77 N3        30.18R
$$

WIZ029-030-035-036-043>047-240300-
CENTRAL WISCONSIN

CITY           SKY/WX    TMP DP  RH WIND       PRES   REMARKS
WAUSAU         CLEAR     69  53  56 N3        30.16R
MOSINEE        PTCLDY    66  54  63 VRB5      30.18R
MARSHFIELD     CLEAR     69  56  62 NE3       30.17R
STEVENS POINT  PTCLDY    64  55  72 CALM      30.17R
WAUPACA        PTCLDY    65  54  66 CALM      30.17R
WAUTOMA        PTCLDY    69  55  60 CALM      30.16R
WISC RAPIDS    CLEAR     67  55  65 CALM      30.17R
CAMP DOUGLAS   PTCLDY    66  66 100 NE2       30.15S
$$

WIZ011>013-019>022-031-037>040-048>050-240300-
NORTHEAST WISCONSIN

CITY           SKY/WX    TMP DP  RH WIND       PRES   REMARKS
ANTIGO         MOCLDY    61  55  78 CALM      30.19R
STURGEON BAY   CLEAR     61  46  59 E3        30.17S
GREEN BAY      CLEAR     63  52  67 SE7       30.17R
MANITOWOC      CLEAR     61  50  67 CALM      30.17S
APPLETON       PTCLDY    68  48  49 E7        30.16S
CLINTONVILLE   CLEAR     63  52  67 E5        30.16R
OSHKOSH        CLEAR     65  55  70 SE8       30.16R
$$

WIZ032>034-041-042-053>061-240300-
SOUTHWEST WISCONSIN

CITY           SKY/WX    TMP DP  RH WIND       PRES   REMARKS
LA CROSSE      MOCLDY    74  58  57 N5        30.14R
SPARTA         CLEAR     65  58  77 CALM      30.16R
VIROQUA        FAIR      65  61  85 CALM      30.17S
BOSCOBEL       CLEAR     70  61  73 CALM      30.14S
PRAIRIE DU CHI CLEAR     69  57  64 CALM      30.13S
PLATTEVILLE    FAIR      68  58  71 N3        30.15F
$$

WIZ056-057-062-063-064-067-068-240300-
SOUTH CENTRAL WISCONSIN

CITY           SKY/WX    TMP DP  RH WIND       PRES   REMARKS
BARABOO/DELLS  PTCLDY    66  56  71 CALM      30.15S
LONE ROCK      CLEAR     69  60  73 NE3       30.14S
WATERTOWN      CLEAR     62  54  75 E5        30.16R
MADISON        PTCLDY    68  55  63 E6        30.15R
MIDDLETON      MOCLDY    69  54  58 E3        30.16R VSB 1
MONROE         MOCLDY    68  57  68 NE5       30.15R
JANESVILLE     CLEAR     63  52  67 E10       30.16R
$$

WIZ051-052-058>065-066-070>072-240300-
SOUTHEAST WISCONSIN

CITY           SKY/WX    TMP DP  RH WIND       PRES   REMARKS
MILWAUKEE      PTCLDY    60  51  72 N7        30.16S
WAUKESHA       PTCLDY    61  46  59 NE8       30.18S
MILWAUKEE/TIMM CLEAR     61  48  63 NE6       30.18S
RACINE         PTCLDY    58  53  84 N7        30.17F
BURLINGTON     PTCLDY    58  49  74 CALM      30.17S
KENOSHA        CLEAR     59  52  77 N5        30.16S
FOND DU LAC    CLEAR     63  49  60 SE6       30.18R
SHEBOYGAN      CLEAR     57  50  77 N3        30.17S
WEST BEND      CLEAR     59  46  63 NE3       30.18R
JUNEAU         CLEAR     62  50  65 E7        30.18R
$$

LSZ147-162-240300-
LAKE SUPERIOR

STATION/POSITION TIME  TEMP    WIND        PRES    WAVE
                       AIR SEA DIR/SP/G            HT/PER
                 (UTC) (F)     (DEG/KT/KT) (MB)    (FT/S)
$$

LMZ867-665-643>646-240300-
LAKE MICHIGAN

STATION/POSITION TIME  TEMP    WIND        PRES    WAVE
                       AIR SEA DIR/SP/G            HT/PER
                 (UTC) (F)     (DEG/KT/KT) (MB)    (FT/S)
$$

TC  - TEMPERATURE IN CELSIUS
VSB - VISIBILITY IN STATUTE MILES
WCI - WIND CHILL INDEX
HX  - HEAT INDEX



USA.gov is the U.S. government's official web portal to all federal, state and local government web resources and services.